Regional Weather Roundup
Issued by NWS Charleston, WV

Home | Current Version | Previous Version | Graphics & Text | Print | Product List | Glossary On
Versions: 1 2 3 4 5 6 7 8 9 10 11 12 13 14 15 16 17 18 19 20 21 22 23 24 25 26 27 28 29 30 31 32 33 34 35 36 37 38 39 40 41 42 43 44 45 46 47 48 49 50
000
ASUS41 KRLX 061010
RWRRLX
West Virginia Regional Weather Roundup
National Weather Service Charleston WV
500 AM EST FRI MAR 06 2015

Note: "fair" indicates few or no clouds below 12,000 feet with no
significant weather and/or obstructions to visibility.

WVZ003-061100-
Northern Panhandle of West Virginia

CITY           SKY/WX    TMP DP  RH WIND       PRES   REMARKS
WHEELING       MOCLDY     2  -2  83 S3        30.49R
$$

WVZ009-061100-
Northwest West Virginia

CITY           SKY/WX    TMP DP  RH WIND       PRES   REMARKS
PARKERSBURG    FOG        1  -2  87 CALM      30.56R VSB 1/4
$$

WVZ006-061100-
Western West Virginia

CITY           SKY/WX    TMP DP  RH WIND       PRES   REMARKS
HUNTINGTON     PTCLDY     5   3  91 N3        30.53R FOG
$$

WVZ015-061100-
West Central West Virginia

CITY           SKY/WX    TMP DP  RH WIND       PRES   REMARKS
CHARLESTON     PTCLDY     9   6  88 CALM      30.51R
$$

WVZ022-031-061100-
North Central West Virginia

CITY           SKY/WX    TMP DP  RH WIND       PRES   REMARKS
CLARKSBURG     PTCLDY    -3  -5  90 CALM      30.50R FOG
MORGANTOWN     PTCLDY     1  -7  68 CALM      30.50R
$$

WVZ025-035-042-045-061100-
Southern West Virginia

CITY           SKY/WX    TMP DP  RH WIND       PRES   REMARKS
BECKLEY        CLOUDY     8   5  87 N3        30.35R
LOGAN          NOT AVBL
BLUEFIELD      CLOUDY    11   4  73 NW3       30.33R
LEWISBURG      PTCLDY     3  -1  83 CALM      30.37R
$$

WVZ047-061100-
Northern Mountains of West Virginia

CITY           SKY/WX    TMP DP  RH WIND       PRES   REMARKS
ELKINS         PTCLDY    -7 -10  87 CALM      30.43R
$$

WVZ052-061100-
Eastern Panhandle of West Virginia

CITY           SKY/WX    TMP DP  RH WIND       PRES   REMARKS
MARTINSBURG    MOCLDY     9  -4  55 NW10      30.52R WCI  -5
PETERSBURG       N/A    N/A N/A N/A MISG        N/A
$$



USA.gov is the U.S. government's official web portal to all federal, state and local government web resources and services.